User: anonymous   Login
Location: Haliburton Scout Reserve
(45.0900°N, 78.3200°W)
Time: 05:28:41
(UTC-04:00)
Language:

PRISM - Orbit

View from above orbital plane
View from above orbital plane
View from above satellite
View from above satellite

Ground track
Ground track

The orbit data is extracted from the following two-line orbital elements,

1 33493U 09002B   22136.18499282  .00006421  00000-0  52735-3 0  9998
2 33493  98.2333 120.9230 0011435 271.9345  88.0567 14.99517922724156
Epoch (UTC): 16 May 2022 04:26:23
Eccentricity: 0.0011435
inclination: 98.2333°
perigee height: 560 km
apogee height: 576 km
right ascension of ascending node: 120.9230°
argument of perigee: 271.9345°
revolutions per day: 14.99517922
mean anomaly at epoch: 88.0567°
orbit number at epoch: 72415

The dashed part of the orbit path shows where the satellite is in the earth's shadow,  

DLR